This demonstration page uses our WeatherBlox Daily Observations layout. Learn more.

Left ArrowRight Arrow

Hourly Observations for November 16, 2016

Temp ( °F °C ) Dew Point ( °F °C ) Humidity (%) Winds ( mph kmh ) Pressure ( in mb ) Visibility ( mi km ) Precip ( " mm )
12:53 am 00:53 Clear 58 14.4 34 1.1 41 41 SW 12 19 29.94 1014 10 16 0.00 0.00
1:53 am 01:53 Clear 47 8.3 38 3.3 71 71 N 5 7 29.95 1014 10 16 0.00 0.00
2:53 am 02:53 Clear 44 6.7 39 3.9 83 83 NE 3 6 29.94 1014 10 16 0.00 0.00
3:53 am 03:53 Clear 45 7.2 38 3.3 77 77 Calm 29.94 1014 10 16 0.00 0.00
4:53 am 04:53 Clear 42 5.6 38 3.3 85 85 Calm 29.94 1014 10 16 0.00 0.00
5:53 am 05:53 Clear 41 5 38 3.3 89 89 Calm 29.96 1014 10 16 0.00 0.00
6:53 am 06:53 Clear 39 3.9 37 2.8 93 93 NE 3 6 29.98 1015 10 16 0.00 0.00
7:53 am 07:53 Sunny 42 5.6 39 3.9 89 89 NNE 3 6 29.98 1015 10 16 0.00 0.00
8:53 am 08:53 Sunny 52 11.1 42 5.6 69 69 Calm 29.96 1015 10 16 0.00 0.00
9:53 am 09:53 Sunny 62 16.7 39 3.9 43 43 SE 6 9 29.94 1014 10 16 0.00 0.00
10:53 am 10:53 Sunny 68 20 36 2.2 31 31 SSE 7 11 29.91 1013 10 16 0.00 0.00
11:53 am 11:53 Sunny 72 22.2 37 2.8 28 28 SW 7 11 29.88 1012 10 16 0.00 0.00
12:53 pm 12:53 Sunny 77 25 32 0 19 19 SW 7 11 29.83 1010 10 16 0.00 0.00
1:53 pm 13:53 Sunny 77 25 33 0.6 20 20 S 12 19 29.82 1010 10 16 0.00 0.00
2:53 pm 14:53 Sunny 79 26.1 32 0 18 18 S 10 17 29.80 1009 10 16 0.00 0.00
3:53 pm 15:53 Sunny 80 26.7 31 -0.6 17 17 SSE 9 15 29.77 1008 10 16 0.00 0.00
4:53 pm 16:53 Sunny 80 26.7 32 0 17 17 SSW 7 11 29.75 1008 10 16 0.00 0.00
5:53 pm 17:53 Clear 71 21.7 36 2.2 28 28 SSE 8 13 29.76 1008 10 16 0.00 0.00
6:53 pm 18:53 Clear 66 18.9 37 2.8 34 34 SE 6 9 29.77 1008 10 16 0.00 0.00
7:53 pm 19:53 Clear 61 16.1 38 3.3 43 43 SE 7 11 29.77 1008 10 16 0.00 0.00
8:53 pm 20:53 Clear 61 16.1 38 3.3 43 43 SE 10 17 29.76 1008 10 16 0.00 0.00
9:53 pm 21:53 Clear 60 15.6 37 2.8 42 42 SE 12 19 29.75 1008 10 16 0.00 0.00
10:53 pm 22:53 Clear 58 14.4 40 4.4 51 51 SE 9 15 29.75 1007 10 16 0.00 0.00
11:53 pm 23:53 Clear 57 13.9 44 6.7 62 62 SE 8 13 29.74 1007 10 16 0.00 0.00

Powered by AerisWeather